Theta_e
314 312 312 311 312 312 312 312 311 309 308 309 309 309 308 307 308 316 321 316 318 318 318 322 328 329 334 345 351 354 355 362 361 360 357 347 349 345 346 345 344 344 344 343 341
311 310 310 310 310 310 311 311 312 312 308 308 308 308 307 307 314 320 316 322 318 315 315 319 329 332 343 352 354 356 361 361 354 355 357 354 346 344 346 346 347 344 343 343 345
310 310 310 310 310 310 310 310 311 311 312 307 307 308 307 309 326 323 322 321 319 315 312 318 322 329 345 353 356 355 361 354 351 348 349 356 349 346 346 349 346 345 346 345 346
310 310 311 311 312 312 311 312 311 311 311 309 306 307 307 317 333 327 322 321 317 312 315 324 331 333 352 360 354 355 354 352 350 347 353 354 353 346 348 348 344 341 344 344 345
310 310 310 311 311 312 312 312 312 312 311 310 304 307 316 327 324 328 320 316 312 312 327 330 331 345 350 355 355 356 354 351 349 349 351 347 355 353 347 345 342 341 343 343 342
310 310 310 310 311 312 312 312 312 313 312 311 304 306 321 329 328 328 319 312 319 323 326 330 329 342 347 356 356 353 350 349 350 350 351 355 354 350 352 344 343 342 340 342 344
313 312 311 311 311 312 312 312 313 317 313 310 305 317 325 329 325 327 319 315 317 325 327 327 329 335 344 353 349 349 352 351 352 351 349 349 352 355 351 348 343 342 340 343 343
315 315 313 312 312 312 312 313 314 317 313 313 306 322 329 326 325 321 322 320 320 325 322 320 326 335 333 348 351 355 355 357 357 351 349 349 353 349 349 350 351 341 341 340 343
313 315 314 314 312 312 312 313 316 319 315 315 320 323 330 322 323 323 320 320 320 319 319 321 322 329 334 352 356 350 357 356 355 355 353 350 353 349 350 350 352 345 341 342 344
312 314 315 314 313 312 313 316 321 317 325 322 324 327 329 321 321 323 323 323 319 317 318 319 320 327 333 350 359 352 351 356 356 356 357 353 355 353 351 350 352 351 349 345 344
312 313 314 314 313 312 313 319 327 326 325 330 331 330 324 323 322 322 323 320 320 319 317 317 320 335 336 346 350 348 349 357 349 346 358 358 355 353 351 350 352 351 351 348 343
313 313 314 314 312 312 312 320 326 324 324 329 330 325 324 323 322 321 323 320 318 317 318 317 319 325 331 333 348 347 351 350 351 352 355 356 357 352 352 350 350 350 352 351 348
313 313 314 313 313 312 315 324 325 324 325 327 324 324 324 324 324 321 320 319 318 318 319 317 319 323 323 325 338 350 349 351 358 357 352 354 357 353 350 349 347 347 350 349 349
313 313 314 312 316 320 324 325 325 325 327 328 324 324 325 326 324 324 322 321 324 322 321 319 320 322 322 326 333 335 347 352 356 357 362 355 363 354 351 351 349 348 349 349 347
313 313 313 312 313 319 326 324 324 325 336 327 325 325 326 325 324 324 323 323 324 326 324 323 322 321 324 326 330 332 338 343 352 355 354 360 358 359 350 352 351 349 348 349 347
313 314 312 315 315 318 323 324 324 329 337 327 325 325 324 324 325 325 323 323 324 325 324 323 324 325 325 326 326 327 330 333 339 346 344 347 359 361 356 351 347 346 348 347 349
313 314 313 316 325 323 323 324 328 333 332 328 325 325 325 327 325 325 324 322 322 324 324 324 324 324 324 324 323 325 326 329 329 332 348 350 356 359 357 353 348 347 348 344 347
314 313 314 313 316 322 323 326 334 337 333 328 327 326 326 329 328 326 325 325 323 324 323 324 326 322 322 322 323 324 324 327 332 334 346 349 355 359 354 355 350 347 347 343 346
316 321 316 314 314 318 323 331 335 335 328 327 325 327 326 328 329 330 326 325 327 323 325 324 326 323 323 322 321 320 321 321 322 335 335 345 358 353 348 351 350 350 348 345 348
319 320 325 324 318 318 326 327 330 330 326 326 328 332 332 331 331 328 331 330 328 326 322 323 323 326 326 323 322 320 320 328 333 343 346 354 355 354 353 349 351 351 346 344 343
322 327 327 322 320 325 328 328 329 328 325 326 327 329 331 332 331 329 333 330 327 325 324 323 322 323 327 324 321 320 321 325 329 341 341 349 355 348 348 347 345 349 349 347 347
321 330 322 322 324 327 327 327 326 327 325 324 326 327 328 329 332 332 333 331 326 325 327 326 324 325 326 329 328 327 334 334 339 345 342 344 352 346 344 343 349 354 349 345 342
321 325 324 321 325 326 326 327 327 325 326 326 327 327 326 327 331 331 333 328 327 326 329 326 329 330 333 333 332 333 337 337 335 337 343 342 343 341 340 343 353 354 351 347 348
321 328 329 323 323 324 325 327 330 325 325 325 326 325 324 325 327 330 330 330 328 327 329 325 325 334 338 338 334 335 333 334 334 342 342 343 345 343 340 351 351 351 350 343 347
323 324 327 333 329 326 323 325 329 331 325 324 324 326 325 328 330 331 329 326 328 329 327 326 328 335 333 334 335 335 334 334 336 336 342 338 341 342 338 352 351 351 349 343 342
322 327 326 327 328 334 330 324 327 328 327 324 326 325 327 326 329 330 325 325 326 329 329 328 337 336 338 336 336 336 336 338 336 334 340 338 342 340 341 347 349 349 348 343 340
320 323 327 326 329 331 332 332 329 328 329 328 327 326 327 326 324 322 321 321 320 322 325 326 327 332 340 338 337 334 339 339 338 339 340 342 344 341 336 345 345 347 348 347 348
Wind_Speed
13 12 12 11 11 10 10 9 9 9 8 7 8 8 9 12 14 9 6 8 6 13 10 9 13 21 24 9 5 8 4 4 5 1 7 8 10 16 22 24 19 9 19 26 35
12 12 12 11 11 11 11 11 10 9 8 7 8 8 9 13 11 12 15 14 11 9 7 12 13 13 7 1 5 5 2 2 2 5 9 19 7 10 14 19 21 17 22 35 34
12 12 11 11 11 11 12 11 11 10 9 8 8 8 8 9 4 6 12 17 14 10 10 15 22 10 8 3 6 3 4 6 5 5 12 16 12 14 10 22 20 20 26 28 31
13 12 12 12 12 12 12 13 12 11 9 8 8 7 7 2 2 4 5 11 11 8 7 11 9 10 7 7 1 7 11 12 3 8 9 11 12 6 21 19 18 16 28 25 24
13 13 13 13 14 14 14 14 14 12 9 8 7 6 1 4 8 3 5 8 8 8 12 10 12 3 6 7 5 7 12 12 9 7 9 5 9 4 17 16 17 14 17 21 15
14 14 14 15 15 16 16 16 17 11 7 6 5 4 2 4 4 1 4 8 8 11 12 17 10 11 7 8 10 6 11 10 7 12 4 4 5 14 12 5 17 12 10 13 18
15 15 16 16 16 18 17 17 17 9 5 4 2 3 5 10 5 1 7 7 10 18 13 22 18 7 7 9 11 16 10 9 3 2 2 4 5 4 5 13 16 13 8 17 11
17 17 16 17 17 19 18 18 13 6 4 3 2 1 6 6 5 5 9 12 15 19 17 20 18 5 3 10 8 8 5 3 2 2 4 4 4 2 6 10 13 12 9 14 19
18 18 17 18 18 21 18 17 8 5 3 2 1 4 8 5 6 13 13 15 12 9 17 15 7 4 5 6 5 4 3 2 1 6 3 3 2 7 7 7 9 2 6 3 8
20 19 18 17 20 21 17 15 9 5 3 4 8 5 7 8 9 9 6 6 5 7 7 6 3 4 5 4 7 8 6 2 5 5 7 4 4 3 4 3 7 6 6 4 7
21 21 20 18 19 20 18 6 1 1 6 9 4 6 5 12 6 3 7 9 8 5 6 9 3 7 13 15 10 9 8 8 6 8 9 10 6 6 6 4 8 6 1 5 10
22 23 21 20 17 17 12 4 10 10 7 17 19 6 4 10 7 9 9 5 5 7 8 5 8 13 16 15 18 16 13 7 4 8 11 9 9 6 8 5 5 10 5 5 3
25 24 23 19 15 13 11 13 12 14 4 8 10 9 6 10 9 10 10 9 9 7 8 9 11 14 14 13 8 20 21 14 5 10 14 7 4 8 6 7 10 11 5 5 7
28 26 22 16 8 8 10 14 9 14 3 6 5 5 4 7 1 16 15 7 7 8 9 8 11 11 12 9 7 5 18 17 15 15 7 11 4 8 11 13 15 16 9 7 11
30 26 18 12 12 6 16 15 12 8 3 12 5 8 4 6 10 4 7 7 10 9 7 8 7 9 6 6 5 7 11 14 15 15 8 14 1 6 15 13 20 19 11 9 6
31 25 15 5 9 14 12 18 15 2 5 5 7 8 9 10 7 7 6 4 8 8 10 8 9 4 3 8 9 12 6 4 8 8 4 1 12 4 12 23 20 17 15 16 10
30 20 13 10 5 12 16 8 3 4 4 6 9 6 12 7 8 8 8 7 6 3 6 9 12 6 3 5 8 8 5 3 5 4 0 3 3 3 13 6 16 19 19 18 13
28 15 9 17 16 9 15 3 5 10 7 6 3 5 6 3 2 9 9 7 12 9 6 5 7 12 8 7 7 5 6 5 5 3 5 9 5 5 10 12 11 12 18 18 17
24 8 6 13 13 8 2 3 5 10 11 6 8 6 8 5 2 1 9 7 5 10 3 5 9 9 11 8 6 9 4 10 5 4 1 1 3 8 13 7 13 14 15 18 16
21 7 15 12 11 11 2 5 6 11 8 7 7 4 7 6 5 6 3 4 7 4 7 6 7 4 3 5 6 7 5 6 3 3 4 2 3 4 10 8 13 4 11 17 13
6 3 9 20 16 2 4 6 13 10 5 6 8 7 6 4 3 4 1 4 4 6 3 3 2 10 6 2 6 3 4 5 2 3 6 2 2 5 8 6 7 14 9 13 13
8 3 16 17 3 3 7 7 11 3 7 3 2 6 6 7 6 8 3 5 6 6 5 7 2 4 7 3 4 9 7 6 5 6 2 2 2 5 11 8 7 10 8 4 5
5 4 11 17 4 8 14 20 19 4 5 5 4 2 4 6 4 6 4 7 2 5 2 5 4 5 11 7 11 6 12 6 3 4 1 4 5 2 6 7 7 5 9 8 6
3 4 3 4 7 11 13 15 17 8 8 4 5 7 5 7 7 4 3 5 7 5 5 4 1 5 4 3 4 8 11 6 4 3 1 3 3 5 8 3 1 4 6 8 5
3 4 8 4 5 8 10 15 19 17 7 4 0 5 8 5 5 4 5 6 7 6 0 2 1 6 4 6 7 5 7 2 1 4 5 3 1 5 5 6 5 1 4 7 5
3 5 10 11 12 15 9 13 17 20 8 9 7 9 8 4 6 2 4 5 1 5 3 1 2 7 4 6 5 4 6 6 10 8 8 4 1 5 5 7 5 8 4 4 1
11 10 4 7 9 9 9 11 14 13 12 7 8 8 6 5 9 7 6 6 7 5 2 4 3 3 2 5 6 4 3 2 2 4 3 4 0 2 3 7 7 9 10 6 6
Wind_Direction
360 358 358 356 353 354 349 347 346 338 328 317 307 303 304 306 304 295 252 245 246 267 289 274 265 250 251 265 337 102 56 315 46 36 307 51 100 101 125 134 147 117 139 131 126
359 359 358 355 353 352 350 346 349 345 333 315 307 304 314 323 319 258 237 251 260 269 284 255 264 247 236 246 77 55 133 64 29 344 284 322 147 146 134 144 116 123 121 132 130
357 356 352 351 348 344 340 337 339 339 331 314 303 307 323 335 288 242 234 238 246 266 257 267 284 283 271 78 22 82 76 112 355 326 287 302 50 59 101 121 140 141 137 141 143
355 352 349 347 343 339 334 329 327 324 320 313 302 312 322 15 14 208 209 226 241 243 249 272 274 275 338 125 196 97 107 118 188 185 301 311 317 112 112 138 142 141 143 148 146
349 349 344 343 339 335 331 328 327 319 306 304 309 325 345 222 252 196 223 217 209 207 234 257 277 347 262 110 131 103 117 144 180 215 162 308 335 54 133 156 135 146 149 153 144
343 341 337 337 334 332 330 329 328 321 296 299 313 332 285 253 119 135 200 186 190 201 241 248 254 259 261 135 124 107 128 151 146 135 110 281 326 83 1 113 137 151 145 131 132
340 336 335 335 332 331 329 326 327 317 291 294 318 9 267 253 330 142 177 233 213 221 239 263 281 338 49 131 127 134 126 130 101 219 185 316 40 92 5 32 146 158 183 156 138
340 336 336 334 329 327 325 325 324 315 289 275 243 146 252 213 258 211 203 225 237 249 266 294 324 315 350 138 89 105 95 69 48 328 8 322 203 263 48 20 348 165 185 156 167
340 336 333 330 326 324 325 327 318 313 289 280 306 214 272 188 223 233 212 221 215 252 267 281 352 286 315 147 65 5 4 31 113 196 151 247 182 276 72 31 342 278 134 133 66
339 334 331 328 324 321 324 321 307 301 307 262 268 285 263 219 203 215 238 304 229 216 258 253 254 230 271 136 176 208 149 142 185 188 170 209 197 260 100 97 292 330 359 202 111
341 336 330 326 322 318 328 341 320 232 229 219 227 235 149 97 111 262 196 235 248 232 232 245 214 252 244 199 167 156 142 160 257 228 176 191 226 198 163 136 291 328 39 329 172
343 337 331 323 315 309 308 255 273 300 298 229 251 229 110 170 184 194 185 233 188 243 229 289 218 248 268 274 180 128 147 193 247 245 202 185 215 165 174 197 191 256 227 204 166
342 337 330 322 309 289 249 248 296 298 285 260 214 211 184 203 237 169 163 230 247 236 234 218 240 230 249 274 181 150 175 180 175 206 203 146 229 169 213 204 217 252 217 191 163
343 337 329 324 308 303 265 281 295 341 301 208 195 146 184 221 179 156 190 233 300 234 256 219 256 271 243 256 288 238 173 158 185 183 202 167 241 199 189 204 210 228 220 227 177
342 334 325 314 300 298 302 345 331 299 284 171 147 146 237 215 148 154 181 269 270 278 307 267 243 282 319 307 330 264 154 169 164 188 218 200 284 249 173 207 212 217 198 217 224
339 331 317 299 273 274 312 317 307 263 249 127 139 188 210 229 145 149 172 239 279 284 297 244 291 310 216 284 287 283 295 246 161 203 239 340 198 222 184 213 205 203 195 196 191
336 321 291 234 223 336 336 298 292 224 175 154 169 186 217 196 153 163 178 196 222 197 259 260 236 221 228 275 289 270 335 332 315 321 304 37 106 208 314 273 207 192 190 190 186
334 307 263 247 246 307 315 317 253 273 282 99 19 88 299 61 195 189 181 211 229 242 259 260 278 203 173 211 233 288 192 171 244 266 215 74 281 257 324 320 290 218 192 179 177
339 318 244 265 225 251 327 266 260 326 28 19 166 220 216 194 266 258 207 241 227 207 22 354 342 129 166 191 180 282 312 232 232 243 353 161 107 71 10 31 328 189 180 181 172
332 288 252 244 185 203 235 253 287 298 16 342 306 27 324 135 185 219 331 43 0 45 50 311 327 295 236 156 204 180 258 342 8 13 335 112 108 321 346 349 322 254 181 186 190
317 277 246 161 168 191 237 257 285 286 66 332 348 342 317 29 328 337 252 88 43 347 134 302 36 297 327 196 196 267 317 329 216 128 187 196 215 241 255 260 299 293 210 195 195
313 283 156 159 168 215 236 247 272 131 133 252 282 284 324 356 350 9 56 91 36 312 3 355 256 287 275 187 339 90 41 37 70 348 33 124 257 217 264 282 307 289 224 208 190
315 280 209 185 229 238 260 256 266 261 196 214 247 72 7 343 341 1 33 116 176 317 110 5 331 358 342 359 5 30 49 23 319 105 42 98 277 217 239 264 232 10 36 150 193
286 290 207 201 249 259 274 297 287 192 281 16 21 13 329 312 276 273 268 166 210 102 134 88 331 116 158 201 337 7 39 21 16 59 44 188 182 213 345 196 163 74 71 51 129
237 263 3 304 286 278 255 274 294 293 175 279 104 206 258 263 282 261 13 27 110 137 273 50 131 101 127 31 23 11 330 10 24 176 173 331 44 51 17 41 347 47 60 103 54
292 347 347 298 291 293 262 243 265 282 162 202 195 248 246 265 288 356 70 33 309 163 178 283 71 119 76 52 9 291 265 6 240 229 203 243 79 68 326 43 342 337 135 102 148
348 330 312 288 299 303 291 291 251 267 293 246 255 212 293 135 70 21 3 339 299 299 265 169 150 163 69 331 332 267 119 137 271 53 101 84 285 41 39 33 1 358 23 19 17